Williston, ND

9:43 AM CDT on June 22, 2017 (GMT -0500)
Sloulin International

Weather History for KISN - February, 2014

Change the Weather History Date:

Sunday, February 2, 2014

  Actual Average Record
Temperature  
Mean Temperature 10 °F 13 °F  
Max Temperature 19 °F 24 °F 52 °F (1962)
Min Temperature 0 °F 2 °F -40 °F (1917)
Degree Days  
Heating Degree Days 55 52  
Month to date heating degree days 113 104  
Since 1 July heating degree days 5512 5525  
Cooling Degree Days 0 0  
Month to date cooling degree days 0 0  
Year to date cooling degree days 0 0  
Moisture  
Dew Point 1 °F    
Average Humidity 72    
Maximum Humidity 87    
Minimum Humidity 56    
Precipitation  
Precipitation T in 0.01 in 0.13 in (1959)
Month to date precipitation T 0.02  
Year to date precipitation 0.18 0.61  
Sea Level Pressure  
Sea Level Pressure 30.16 in    
Wind  
Wind Speed 9 mph (West)    
Max Wind Speed 21 mph    
Max Gust Speed 26 mph    
Visibility 10 miles    
Events      
T = Trace of Precipitation, MM = Missing Value Source: NWS Daily Summary

Daily Weather History Graph

Daily Weather History Graph

Search for Another Location

Airport or City:

Trip Planner

Search our weather history database for the weather conditions in past years. The results will help you decide how hot, cold, wet, or windy it might be!

Date:

Astronomy

Feb. 02, 2014 Rise Set
Actual Time 8:21 AM CST 5:55 PM CST
Civil Twilight 7:47 AM CST 6:29 PM CST
Nautical Twilight 7:10 AM CST 7:06 PM CST
Astronomical Twilight 6:34 AM CST 7:43 PM CST
Moon 9:30 AM CST (2/2) 10:04 PM CST (2/2)
Length of Visible Light 10h 41m
Length of Day
9h 34m
Waxing Crescent, 11% of the Moon is Illuminated
Feb 2
Waxing Crescent
Feb 6
First Quarter
Feb 14
Full
Feb 22
Last Quarter
Mar 1
New

Hourly Weather History & Observations

Time (CST) Temp. Windchill Dew Point Humidity Pressure Visibility Wind Dir Wind Speed Gust Speed Precip Events Conditions
12:52 AM 5.0 °F -4.1 °F -0.9 °F 76% 30.18 in 10.0 mi WSW 4.6 mph - N/A   Clear
1:52 AM 1.9 °F -7.6 °F -2.0 °F 83% 30.17 in 10.0 mi SSW 4.6 mph - N/A   Clear
2:52 AM 1.9 °F -9.2 °F -2.0 °F 83% 30.16 in 10.0 mi SSW 5.8 mph - N/A   Clear
3:52 AM 1.9 °F -12.9 °F -2.9 °F 80% 30.15 in 10.0 mi SW 9.2 mph - N/A   Clear
4:52 AM 1.9 °F -12.9 °F -2.9 °F 80% 30.14 in 10.0 mi SSW 9.2 mph - N/A   Clear
5:52 AM 1.9 °F -5.6 °F -2.9 °F 80% 30.13 in 10.0 mi SSW 3.5 mph - N/A   Clear
6:52 AM 1.9 °F -10.6 °F -2.9 °F 80% 30.11 in 10.0 mi SW 6.9 mph - N/A   Clear
7:52 AM 1.0 °F -15.8 °F -4.0 °F 79% 30.12 in 10.0 mi SSW 11.5 mph - N/A   Clear
8:52 AM 1.0 °F -6.7 °F -5.1 °F 75% 30.12 in 10.0 mi SSW 3.5 mph - N/A   Clear
9:52 AM 3.0 °F -10.5 °F -2.9 °F 76% 30.12 in 10.0 mi SW 8.1 mph - N/A   Clear
10:52 AM 9.0 °F -6.6 °F 1.0 °F 70% 30.12 in 10.0 mi WSW 12.7 mph - N/A   Clear
11:52 AM 12.9 °F -0.2 °F 3.0 °F 65% 30.12 in 10.0 mi West 10.4 mph - N/A   Clear
12:52 PM 16.0 °F 2.9 °F 3.0 °F 57% 30.13 in 10.0 mi WNW 11.5 mph - N/A   Clear
1:52 PM 18.0 °F 4.2 °F 6.1 °F 60% 30.14 in 10.0 mi WNW 13.8 mph 23.0 mph N/A   Mostly Cloudy
2:52 PM 17.1 °F 3.0 °F 5.0 °F 59% 30.14 in 10.0 mi NW 13.8 mph - N/A   Overcast
3:52 PM 16.0 °F -0.9 °F 3.9 °F 59% 30.17 in 9.0 mi NW 19.6 mph - 0.00 in   Overcast
4:52 PM 15.1 °F 1.1 °F 3.0 °F 59% 30.19 in 10.0 mi NW 12.7 mph - 0.00 in   Overcast
5:52 PM 14.0 °F 2.9 °F 3.0 °F 62% 30.20 in 10.0 mi NW 8.1 mph - 0.00 in   Overcast
6:52 PM 14.0 °F 0.5 °F 3.0 °F 62% 30.21 in 9.0 mi WNW 11.5 mph - 0.00 in   Overcast
7:52 PM 12.9 °F 3.8 °F 5.0 °F 71% 30.22 in 10.0 mi NNW 5.8 mph - N/A   Overcast
8:18 PM 12.9 °F 5.2 °F 5.0 °F 71% 30.07 in 10.0 mi NW 4.6 mph - N/A   Overcast
8:52 PM 12.0 °F - 5.0 °F 73% 30.22 in 10.0 mi Calm Calm - 0.00 in   Overcast
9:52 PM 12.9 °F 1.6 °F 3.0 °F 65% 30.22 in 10.0 mi West 8.1 mph - N/A   Overcast
10:52 PM 12.9 °F 2.6 °F 1.9 °F 62% 30.21 in 10.0 mi WNW 6.9 mph - N/A   Overcast
11:52 PM 10.0 °F -0.9 °F 1.9 °F 70% 30.20 in 10.0 mi NW 6.9 mph - N/A   Overcast